| time (UTC) | temp F | wind direction | speed MPH | gust MPH | rain 1hr in | rain 24hr in | rain mn in | humidity % | barometer mb |
| 20260506145505 | 54 | 191 | 7.0 | 0.0 | 0.00 | 0.01 | 0.00 | 76 | 1010.3 |
| 20260506135852 | 57 | 165 | 6.0 | 0.0 | 0.02 | 0.03 | 0.00 | 68 | 1010.3 |
| 20260506125935 | 55 | 166 | 5.0 | 0.0 | 0.00 | 0.06 | 0.00 | 77 | 1010.3 |
| 20260506120434 | 55 | 166 | 5.0 | 0.0 | 0.00 | 0.06 | 0.00 | 77 | 1010.3 |
| 20260506111408 | 53 | 167 | 5.0 | 0.0 | 0.00 | 0.06 | 0.00 | 84 | 1010.9 |
| 20260506102243 | 51 | 183 | 3.0 | 0.0 | 0.00 | 0.07 | 0.00 | 89 | 1010.7 |
| 20260506092858 | 51 | 208 | 3.0 | 0.0 | 0.02 | 0.07 | 0.00 | 88 | 1010.2 |
| 20260506083700 | 50 | 274 | 5.0 | 0.0 | 0.02 | 0.08 | 0.00 | 90 | 1009.7 |
| 20260506060541 | 50 | 339 | 3.0 | 0.0 | 0.01 | 0.06 | 0.00 | 92 | 1009.2 |
| 20260506042328 | 50 | 321 | 2.0 | 0.0 | 0.04 | 0.10 | 0.00 | 95 | 1008.7 |
| 20260506032448 | 50 | 39 | 1.0 | 0.0 | 0.03 | 0.13 | 0.00 | 96 | 1008.7 |
| 20260506022653 | 50 | 310 | 3.0 | 0.0 | 0.01 | 0.14 | 0.00 | 97 | 1008.9 |
| 20260506013433 | 50 | 164 | 4.0 | 0.0 | 0.01 | 0.15 | 0.00 | 97 | 1009.4 |
| 20260506003713 | 50 | 143 | 4.0 | 0.0 | 0.01 | 0.08 | 0.00 | 97 | 1009.6 |
| 20260505234558 | 50 | 157 | 4.0 | 0.0 | 0.00 | 0.06 | 0.00 | 97 | 1010.1 |
| 20260505224648 | 51 | 173 | 6.0 | 0.0 | 0.00 | 0.05 | 0.00 | 96 | 1010.6 |
| 20260505215343 | 51 | 144 | 5.0 | 0.0 | 0.00 | 0.04 | 0.00 | 96 | 1010.9 |
| 20260505205759 | 52 | 118 | 3.0 | 0.0 | 0.00 | 0.02 | 0.00 | 92 | 1010.4 |
| 20260505195923 | 53 | 205 | 6.0 | 0.0 | 0.00 | 0.01 | 0.00 | 90 | 1010.3 |
| 20260505190956 | 54 | 202 | 6.0 | 0.0 | 0.00 | 0.02 | 0.00 | 88 | 1009.8 |
| 20260505181335 | 57 | 179 | 5.0 | 0.0 | 0.00 | 0.01 | 0.00 | 81 | 1009.2 |
| 20260505172424 | 59 | 175 | 3.0 | 0.0 | 0.00 | 0.01 | 0.00 | 74 | 1008.3 |
| 20260505163400 | 58 | 216 | 5.0 | 0.0 | 0.00 | 0.01 | 0.00 | 75 | 1008.9 |